FW6705 Weather Reports


time (UTC)temp
C
wind
direction
speed
KPH
gust
KPH
rain 1hr
cm
rain 24hr
cm
rain mn
cm
humidity
%
barometer
mb
20260906140017 20 0.0 0.0 0.00 0.00 0.00 99 1020.3
20260906133015 18 0.0 0.0 0.00 0.00 0.00 99 1020.5
20260906130017 18 0.0 0.0 0.00 0.00 0.00 99 1020.2
20260906123018 17 0.0 0.0 0.00 0.00 0.00 98 1019.9
20260906120017 16 0.0 0.0 0.00 0.00 0.00 98 1019.3
20260906113017 16 0.0 0.0 0.00 0.00 0.00 98 1019.1
20260906110017 16 0.0 0.0 0.00 0.00 0.00 98 1019.0
20260906103057 16 0.0 0.0 0.00 0.00 0.00 98 1019.0
20260906100017 16 0.0 0.0 0.00 0.00 0.00 97 1018.9
20260906093017 17 0.0 0.0 0.00 0.00 0.00 97 1018.6
20260906090016 17 0.0 0.0 0.00 0.00 0.00 97 1018.4
20260906083017 17 0.0 0.0 0.00 0.00 0.00 97 1018.5
20260906080016 17 0.0 0.0 0.00 0.00 0.00 97 1018.6
20260906073017 17 0.0 0.0 0.00 0.00 0.00 96 1018.5
20260906070016 18 0.0 0.0 0.00 0.00 0.00 96 1018.6
20260906063016 18 0.0 0.0 0.00 0.00 0.00 96 1018.7
20260906060056 18 0.0 0.0 0.00 0.00 0.00 96 1018.9
20260906053016 19 0.0 0.0 0.00 0.00 0.00 96 1018.2
20260906050017 19 0.0 0.0 0.00 0.00 0.00 95 1018.3
20260906043017 20 0.0 0.0 0.00 0.00 0.00 95 1018.0
20260906040022 20 0.0 0.0 0.00 0.00 0.00 94 1017.8
20260906033017 20 0.0 0.0 0.00 0.00 0.00 93 1017.6
20260906030019 21 90 1.6 6.4 0.00 0.00 0.00 93 1017.3
20260906023016 21 90 1.6 4.8 0.00 0.00 0.00 93 1017.0
20260906020016 21 90 3.2 4.8 0.00 0.00 0.00 92 1016.7
20260906013021 22 90 1.6 4.8 0.00 0.00 0.00 91 1016.9
20260906010016 22 90 1.6 6.4 0.00 0.00 0.00 88 1016.8
20260906003018 23 68 1.6 6.4 0.00 0.00 0.00 87 1016.3
20260906000019 25 68 3.2 8.0 0.00 0.00 0.00 85 1016.4
20260905233017 26 68 1.6 4.8 0.00 0.00 0.00 82 1016.4
20260905230017 26 45 1.6 4.8 0.00 0.00 0.00 82 1016.1
20260905223021 27 68 1.6 9.7 0.00 0.00 0.00 79 1016.0
20260905220016 27 23 1.6 6.4 0.00 0.00 0.00 77 1016.0
20260905213016 27 0 1.6 6.4 0.00 0.00 0.00 78 1015.8
20260905210057 26 45 1.6 4.8 0.00 0.00 0.00 80 1016.1
20260905203017 26 90 1.6 4.8 0.00 0.00 0.00 83 1016.0
20260905200016 26 45 1.6 6.4 0.00 0.00 0.00 85 1016.2
20260905193016 25 45 1.6 4.8 0.00 0.00 0.00 89 1016.2
20260905190016 24 68 1.6 4.8 0.00 0.00 0.00 89 1016.4
20260905183015 24 45 1.6 4.8 0.00 0.00 0.00 90 1016.5
20260905180016 25 45 1.6 6.4 0.00 0.00 0.00 91 1016.5
20260905173015 24 45 1.6 4.8 0.00 0.00 0.00 91 1016.5
20260905170016 24 45 3.2 4.8 0.00 0.00 0.00 90 1016.6
20260905163015 25 68 1.6 4.8 0.00 0.00 0.00 90 1016.6
20260905160021 24 68 1.6 4.8 0.00 0.00 0.00 91 1016.5
20260905153016 24 68 1.6 4.8 0.00 0.00 0.00 92 1016.3
20260905150016 23 68 1.6 3.2 0.00 0.00 0.00 94 1016.0
20260905143055 23 90 1.6 4.8 0.00 0.00 0.00 95 1015.7